QPF
0.00 0.00 0.01 0.03 0.09 0.09 0.06 0.06 0.05 0.05 0.03 0.02 0.01 0.01 0.01 0.02 0.07 0.17 0.18 0.17 0.17 0.16 0.13 0.10 0.10 0.11 0.16 0.22 0.20 0.16 0.17 0.17 0.13 0.13 0.13 0.13 0.12 0.13 0.14 0.17 0.21 0.22 0.18 0.13 0.11 0.12 0.13 0.11 0.10
0.01 0.01 0.03 0.08 0.12 0.07 0.08 0.06 0.05 0.04 0.02 0.01 0.01 0.01 0.01 0.02 0.04 0.08 0.10 0.13 0.17 0.17 0.13 0.10 0.09 0.10 0.18 0.23 0.18 0.16 0.15 0.13 0.12 0.13 0.13 0.14 0.14 0.13 0.13 0.15 0.16 0.17 0.14 0.12 0.09 0.08 0.09 0.09 0.10
0.02 0.02 0.06 0.10 0.08 0.07 0.06 0.03 0.03 0.02 0.01 0.01 0.00 0.00 0.01 0.03 0.05 0.07 0.06 0.08 0.13 0.15 0.14 0.09 0.06 0.10 0.17 0.16 0.15 0.16 0.14 0.11 0.13 0.15 0.15 0.16 0.14 0.13 0.15 0.17 0.16 0.15 0.12 0.11 0.11 0.09 0.09 0.10 0.11
0.03 0.03 0.05 0.08 0.06 0.04 0.03 0.02 0.01 0.01 0.00 0.00 0.00 0.01 0.02 0.03 0.04 0.05 0.04 0.04 0.09 0.13 0.14 0.10 0.06 0.10 0.18 0.15 0.10 0.12 0.12 0.10 0.10 0.11 0.12 0.11 0.13 0.15 0.19 0.19 0.16 0.15 0.14 0.14 0.11 0.14 0.18 0.16 0.17
0.03 0.06 0.09 0.07 0.03 0.03 0.02 0.01 0.00 0.00 0.00 0.01 0.01 0.01 0.03 0.03 0.02 0.02 0.02 0.03 0.07 0.09 0.12 0.12 0.09 0.11 0.16 0.16 0.11 0.12 0.15 0.13 0.09 0.11 0.11 0.09 0.14 0.19 0.18 0.15 0.16 0.17 0.15 0.13 0.12 0.19 0.31 0.23 0.21
0.05 0.10 0.08 0.05 0.03 0.02 0.01 0.01 0.00 0.00 0.00 0.00 0.01 0.01 0.04 0.03 0.02 0.02 0.02 0.04 0.06 0.07 0.11 0.11 0.11 0.10 0.10 0.16 0.15 0.16 0.15 0.12 0.12 0.16 0.13 0.13 0.19 0.20 0.16 0.14 0.18 0.19 0.16 0.13 0.11 0.15 0.25 0.25 0.23
0.05 0.05 0.05 0.03 0.01 0.01 0.01 0.01 0.00 0.00 0.01 0.01 0.00 0.01 0.02 0.01 0.02 0.01 0.01 0.03 0.04 0.05 0.07 0.08 0.09 0.09 0.09 0.14 0.17 0.14 0.14 0.14 0.15 0.17 0.18 0.19 0.19 0.19 0.19 0.14 0.18 0.18 0.14 0.13 0.10 0.10 0.13 0.16 0.14
0.02 0.05 0.04 0.01 0.01 0.02 0.01 0.00 0.00 0.00 0.01 0.00 0.00 0.02 0.02 0.01 0.02 0.01 0.02 0.03 0.04 0.04 0.04 0.05 0.06 0.08 0.10 0.13 0.17 0.16 0.16 0.21 0.22 0.20 0.15 0.13 0.12 0.12 0.15 0.16 0.16 0.13 0.11 0.12 0.14 0.12 0.11 0.14 0.12
0.02 0.06 0.04 0.01 0.01 0.02 0.01 0.01 0.00 0.00 0.00 0.00 0.00 0.01 0.01 0.01 0.02 0.02 0.03 0.03 0.04 0.04 0.04 0.05 0.05 0.06 0.08 0.11 0.15 0.18 0.23 0.27 0.24 0.20 0.14 0.12 0.14 0.12 0.15 0.17 0.13 0.09 0.07 0.12 0.16 0.15 0.14 0.15 0.12
0.02 0.03 0.02 0.01 0.00 0.00 0.01 0.01 0.01 0.01 0.01 0.01 0.01 0.01 0.01 0.01 0.02 0.03 0.03 0.03 0.04 0.04 0.04 0.04 0.05 0.05 0.04 0.06 0.11 0.13 0.16 0.18 0.17 0.15 0.14 0.14 0.15 0.17 0.16 0.16 0.13 0.09 0.07 0.09 0.11 0.12 0.12 0.12 0.11
0.00 0.01 0.01 0.01 0.01 0.00 0.00 0.00 0.00 0.01 0.02 0.02 0.02 0.02 0.01 0.01 0.02 0.03 0.03 0.03 0.03 0.04 0.03 0.03 0.03 0.05 0.04 0.04 0.07 0.08 0.10 0.13 0.14 0.15 0.14 0.15 0.15 0.15 0.16 0.17 0.16 0.13 0.09 0.09 0.10 0.09 0.11 0.13 0.13
0.00 0.00 0.01 0.00 0.00 0.00 0.00 0.00 0.00 0.00 0.01 0.02 0.01 0.01 0.01 0.01 0.02 0.02 0.03 0.03 0.03 0.03 0.03 0.03 0.03 0.04 0.06 0.05 0.06 0.07 0.07 0.10 0.14 0.17 0.16 0.14 0.15 0.13 0.13 0.13 0.17 0.17 0.15 0.14 0.14 0.15 0.14 0.13 0.13
0.00 0.00 0.00 0.00 0.00 0.00 0.00 0.00 0.00 0.00 0.01 0.01 0.01 0.00 0.00 0.00 0.01 0.01 0.02 0.02 0.02 0.01 0.02 0.02 0.03 0.03 0.03 0.05 0.07 0.07 0.08 0.09 0.12 0.17 0.16 0.12 0.11 0.11 0.10 0.11 0.13 0.14 0.13 0.13 0.12 0.11 0.10 0.10 0.10
0.00 0.00 0.00 0.00 0.00 0.00 0.00 0.00 0.00 0.00 0.00 0.01 0.00 0.00 0.00 0.00 0.01 0.01 0.01 0.02 0.02 0.02 0.02 0.02 0.03 0.02 0.03 0.05 0.06 0.06 0.07 0.10 0.13 0.19 0.19 0.15 0.12 0.12 0.09 0.08 0.10 0.11 0.10 0.08 0.06 0.07 0.07 0.08 0.09
0.00 0.00 0.00 0.00 0.00 0.00 0.00 0.01 0.00 0.00 0.00 0.00 0.00 0.00 0.00 0.00 0.00 0.00 0.01 0.01 0.01 0.01 0.01 0.02 0.02 0.03 0.03 0.04 0.04 0.04 0.05 0.06 0.09 0.14 0.18 0.18 0.16 0.15 0.12 0.09 0.08 0.10 0.09 0.07 0.06 0.06 0.07 0.06 0.06
0.00 0.01 0.01 0.00 0.00 0.00 0.00 0.02 0.01 0.00 0.00 0.01 0.01 0.01 0.00 0.00 0.00 0.01 0.01 0.00 0.00 0.01 0.01 0.01 0.02 0.02 0.02 0.03 0.04 0.04 0.04 0.04 0.04 0.07 0.09 0.10 0.12 0.15 0.16 0.15 0.12 0.11 0.11 0.09 0.09 0.08 0.06 0.06 0.07
0.01 0.02 0.02 0.01 0.00 0.00 0.00 0.01 0.01 0.01 0.01 0.01 0.01 0.01 0.02 0.01 0.01 0.01 0.01 0.01 0.00 0.01 0.01 0.02 0.02 0.02 0.02 0.02 0.03 0.03 0.04 0.03 0.03 0.04 0.06 0.07 0.07 0.11 0.17 0.17 0.16 0.15 0.15 0.14 0.12 0.11 0.09 0.08 0.07
0.01 0.01 0.02 0.01 0.00 0.00 0.00 0.00 0.01 0.01 0.01 0.01 0.01 0.01 0.01 0.01 0.01 0.00 0.00 0.00 0.01 0.01 0.01 0.02 0.02 0.03 0.03 0.02 0.03 0.03 0.04 0.04 0.03 0.04 0.05 0.06 0.07 0.07 0.12 0.17 0.17 0.17 0.18 0.18 0.16 0.14 0.10 0.09 0.09
0.01 0.01 0.01 0.01 0.00 0.00 0.00 0.00 0.00 0.00 0.00 0.00 0.00 0.01 0.01 0.01 0.01 0.00 0.00 0.00 0.01 0.01 0.02 0.02 0.03 0.03 0.04 0.04 0.03 0.03 0.05 0.04 0.04 0.04 0.04 0.04 0.05 0.05 0.07 0.11 0.16 0.16 0.17 0.17 0.15 0.14 0.12 0.11 0.11
0.00 0.00 0.00 0.00 0.00 0.00 0.01 0.01 0.00 0.00 0.00 0.00 0.00 0.00 0.01 0.01 0.01 0.01 0.01 0.01 0.01 0.01 0.01 0.01 0.02 0.03 0.03 0.02 0.02 0.03 0.06 0.07 0.06 0.06 0.06 0.04 0.04 0.05 0.06 0.07 0.09 0.12 0.14 0.13 0.12 0.11 0.11 0.10 0.11
0.00 0.00 0.00 0.00 0.00 0.00 0.01 0.02 0.01 0.00 0.00 0.00 0.00 0.00 0.01 0.01 0.01 0.01 0.01 0.01 0.00 0.01 0.01 0.01 0.02 0.02 0.02 0.03 0.02 0.03 0.04 0.04 0.06 0.07 0.06 0.05 0.04 0.04 0.05 0.06 0.06 0.07 0.08 0.10 0.09 0.08 0.08 0.09 0.10
0.00 0.00 0.00 0.00 0.00 0.00 0.01 0.03 0.02 0.00 0.00 0.00 0.00 0.00 0.00 0.00 0.00 0.00 0.00 0.01 0.00 0.01 0.01 0.01 0.01 0.01 0.01 0.02 0.02 0.02 0.02 0.04 0.07 0.09 0.07 0.06 0.04 0.03 0.04 0.06 0.06 0.06 0.06 0.07 0.07 0.07 0.08 0.09 0.09
0.00 0.00 0.00 0.00 0.00 0.00 0.01 0.02 0.01 0.01 0.00 0.00 0.00 0.00 0.00 0.00 0.00 0.00 0.00 0.00 0.00 0.00 0.00 0.00 0.00 0.01 0.01 0.01 0.01 0.02 0.03 0.04 0.06 0.08 0.06 0.03 0.03 0.03 0.02 0.03 0.05 0.05 0.05 0.05 0.05 0.07 0.07 0.07 0.08
0.00 0.00 0.00 0.00 0.00 0.00 0.00 0.00 0.01 0.02 0.01 0.00 0.00 0.00 0.00 0.00 0.00 0.00 0.00 0.00 0.00 0.00 0.00 0.00 0.01 0.01 0.02 0.02 0.02 0.02 0.03 0.05 0.06 0.07 0.05 0.03 0.03 0.04 0.03 0.03 0.03 0.04 0.04 0.04 0.05 0.07 0.06 0.07 0.09
0.00 0.00 0.00 0.01 0.01 0.00 0.00 0.00 0.00 0.00 0.00 0.00 0.00 0.00 0.00 0.01 0.00 0.00 0.00 0.00 0.00 0.00 0.00 0.00 0.01 0.01 0.02 0.02 0.02 0.02 0.03 0.04 0.04 0.03 0.04 0.03 0.03 0.04 0.04 0.04 0.03 0.03 0.03 0.04 0.05 0.05 0.06 0.06 0.06
0.00 0.00 0.00 0.01 0.01 0.01 0.02 0.01 0.00 0.00 0.00 0.00 0.00 0.01 0.02 0.01 0.00 0.01 0.00 0.00 0.00 0.00 0.00 0.01 0.01 0.02 0.02 0.02 0.02 0.03 0.03 0.04 0.03 0.03 0.02 0.02 0.03 0.03 0.04 0.04 0.04 0.03 0.04 0.04 0.05 0.05 0.05 0.05 0.05
0.00 0.00 0.00 0.00 0.01 0.01 0.01 0.00 0.00 0.00 0.00 0.00 0.00 0.01 0.01 0.00 0.00 0.00 0.00 0.00 0.00 0.00 0.00 0.01 0.01 0.02 0.02 0.01 0.01 0.01 0.02 0.03 0.03 0.02 0.02 0.02 0.03 0.03 0.05 0.05 0.04 0.05 0.05 0.05 0.05 0.06 0.05 0.05 0.05
0.00 0.00 0.00 0.00 0.02 0.02 0.02 0.01 0.01 0.01 0.00 0.00 0.00 0.00 0.00 0.00 0.00 0.00 0.00 0.00 0.00 0.00 0.00 0.00 0.00 0.01 0.01 0.01 0.01 0.01 0.02 0.02 0.02 0.02 0.02 0.03 0.04 0.05 0.05 0.05 0.04 0.04 0.04 0.04 0.04 0.05 0.05 0.06 0.05
0.00 0.00 0.00 0.00 0.01 0.02 0.02 0.02 0.02 0.01 0.00 0.00 0.00 0.00 0.00 0.00 0.00 0.00 0.00 0.00 0.00 0.00 0.00 0.00 0.00 0.01 0.01 0.02 0.02 0.03 0.04 0.04 0.05 0.04 0.04 0.04 0.05 0.05 0.05 0.06 0.06 0.07 0.06 0.06 0.05 0.05 0.07 0.06 0.05
0.00 0.00 0.00 0.02 0.02 0.02 0.03 0.01 0.01 0.01 0.00 0.00 0.00 0.00 0.00 0.01 0.01 0.00 0.00 0.00 0.00 0.00 0.01 0.01 0.01 0.01 0.01 0.01 0.02 0.03 0.04 0.07 0.10 0.09 0.06 0.06 0.05 0.04 0.04 0.05 0.06 0.07 0.08 0.08 0.08 0.06 0.06 0.05 0.04
MSLP
1008.19 1008.72 1009.20 1009.55 1009.69 1009.59 1009.25 1008.76 1008.22 1007.75 1007.49 1007.50 1007.81 1008.39 1009.16 1009.99 1010.77 1011.40 1011.82 1012.02 1012.05 1011.98 1011.90 1011.87 1011.94 1012.11 1012.35 1012.61 1012.84 1013.02 1013.13 1013.21 1013.28 1013.39 1013.55 1013.79 1014.07 1014.37 1014.65 1014.86 1015.01 1015.09 1015.14 1015.18 1015.26 1015.37 1015.54 1015.73 1015.91
1008.22 1008.76 1009.18 1009.40 1009.36 1009.07 1008.57 1007.96 1007.38 1006.95 1006.78 1006.92 1007.36 1008.05 1008.88 1009.74 1010.50 1011.09 1011.48 1011.68 1011.74 1011.75 1011.78 1011.89 1012.08 1012.36 1012.67 1012.96 1013.21 1013.38 1013.48 1013.55 1013.63 1013.74 1013.92 1014.16 1014.43 1014.69 1014.92 1015.07 1015.16 1015.19 1015.20 1015.23 1015.30 1015.44 1015.63 1015.84 1016.04
1008.29 1008.82 1009.17 1009.26 1009.06 1008.60 1007.96 1007.28 1006.68 1006.31 1006.25 1006.52 1007.08 1007.86 1008.74 1009.59 1010.31 1010.84 1011.18 1011.35 1011.44 1011.51 1011.65 1011.87 1012.19 1012.56 1012.94 1013.29 1013.55 1013.72 1013.82 1013.89 1013.96 1014.08 1014.26 1014.49 1014.74 1014.97 1015.16 1015.27 1015.31 1015.32 1015.32 1015.35 1015.44 1015.60 1015.81 1016.04 1016.24
1008.37 1008.88 1009.16 1009.12 1008.79 1008.20 1007.47 1006.75 1006.18 1005.89 1005.94 1006.32 1006.99 1007.84 1008.73 1009.55 1010.21 1010.66 1010.93 1011.07 1011.16 1011.29 1011.50 1011.83 1012.25 1012.72 1013.17 1013.56 1013.84 1014.03 1014.13 1014.19 1014.27 1014.38 1014.56 1014.77 1015.00 1015.21 1015.37 1015.46 1015.50 1015.50 1015.52 1015.58 1015.70 1015.87 1016.09 1016.30 1016.48
1008.41 1008.88 1009.08 1008.95 1008.51 1007.84 1007.08 1006.37 1005.85 1005.66 1005.82 1006.31 1007.06 1007.94 1008.82 1009.59 1010.17 1010.53 1010.73 1010.83 1010.92 1011.07 1011.35 1011.76 1012.27 1012.81 1013.33 1013.76 1014.07 1014.26 1014.37 1014.44 1014.51 1014.63 1014.79 1015.00 1015.22 1015.41 1015.56 1015.65 1015.69 1015.72 1015.77 1015.86 1016.01 1016.20 1016.41 1016.60 1016.73
1008.35 1008.76 1008.87 1008.66 1008.16 1007.47 1006.72 1006.07 1005.64 1005.56 1005.82 1006.40 1007.21 1008.10 1008.95 1009.65 1010.14 1010.43 1010.56 1010.62 1010.70 1010.88 1011.20 1011.66 1012.23 1012.82 1013.38 1013.84 1014.18 1014.39 1014.51 1014.59 1014.67 1014.79 1014.95 1015.15 1015.35 1015.54 1015.69 1015.79 1015.86 1015.92 1016.01 1016.14 1016.31 1016.51 1016.70 1016.85 1016.93
1008.14 1008.45 1008.48 1008.21 1007.69 1007.02 1006.33 1005.77 1005.47 1005.49 1005.86 1006.51 1007.34 1008.22 1009.03 1009.68 1010.10 1010.32 1010.40 1010.43 1010.50 1010.69 1011.03 1011.52 1012.11 1012.73 1013.30 1013.78 1014.13 1014.37 1014.51 1014.61 1014.70 1014.83 1015.00 1015.19 1015.39 1015.58 1015.73 1015.84 1015.94 1016.03 1016.16 1016.31 1016.50 1016.69 1016.86 1016.97 1017.00
1007.76 1007.96 1007.90 1007.59 1007.07 1006.46 1005.87 1005.43 1005.25 1005.39 1005.85 1006.55 1007.40 1008.27 1009.04 1009.63 1010.00 1010.18 1010.23 1010.25 1010.32 1010.50 1010.85 1011.33 1011.91 1012.52 1013.08 1013.56 1013.92 1014.17 1014.34 1014.47 1014.59 1014.74 1014.92 1015.12 1015.32 1015.50 1015.65 1015.78 1015.89 1016.01 1016.15 1016.33 1016.52 1016.70 1016.85 1016.92 1016.91
1007.25 1007.33 1007.19 1006.84 1006.35 1005.81 1005.33 1005.03 1004.97 1005.22 1005.75 1006.49 1007.34 1008.19 1008.93 1009.49 1009.84 1010.01 1010.06 1010.08 1010.15 1010.33 1010.65 1011.11 1011.65 1012.21 1012.74 1013.20 1013.55 1013.82 1014.01 1014.17 1014.33 1014.51 1014.70 1014.91 1015.12 1015.30 1015.45 1015.58 1015.70 1015.83 1015.98 1016.16 1016.35 1016.53 1016.65 1016.70 1016.66
1006.70 1006.65 1006.43 1006.06 1005.60 1005.14 1004.78 1004.59 1004.65 1004.99 1005.56 1006.32 1007.16 1007.99 1008.71 1009.26 1009.62 1009.80 1009.88 1009.92 1010.00 1010.18 1010.47 1010.87 1011.34 1011.84 1012.32 1012.73 1013.07 1013.33 1013.55 1013.74 1013.94 1014.15 1014.37 1014.60 1014.81 1015.00 1015.15 1015.28 1015.40 1015.53 1015.68 1015.85 1016.03 1016.20 1016.31 1016.36 1016.31
1006.21 1006.05 1005.76 1005.37 1004.95 1004.56 1004.29 1004.20 1004.34 1004.72 1005.31 1006.06 1006.87 1007.67 1008.38 1008.93 1009.32 1009.55 1009.68 1009.76 1009.87 1010.04 1010.29 1010.63 1011.03 1011.46 1011.86 1012.22 1012.53 1012.78 1013.01 1013.23 1013.45 1013.69 1013.94 1014.19 1014.42 1014.62 1014.78 1014.91 1015.03 1015.16 1015.30 1015.47 1015.64 1015.80 1015.91 1015.95 1015.92
1005.88 1005.63 1005.28 1004.88 1004.49 1004.15 1003.95 1003.91 1004.08 1004.46 1005.03 1005.73 1006.50 1007.26 1007.95 1008.52 1008.95 1009.24 1009.43 1009.58 1009.72 1009.89 1010.13 1010.42 1010.75 1011.10 1011.43 1011.74 1012.00 1012.24 1012.46 1012.69 1012.93 1013.19 1013.46 1013.73 1013.99 1014.20 1014.38 1014.53 1014.66 1014.79 1014.93 1015.09 1015.25 1015.41 1015.52 1015.57 1015.56
1005.77 1005.46 1005.08 1004.67 1004.29 1003.99 1003.81 1003.78 1003.93 1004.26 1004.74 1005.36 1006.05 1006.75 1007.41 1008.00 1008.47 1008.84 1009.11 1009.33 1009.52 1009.73 1009.95 1010.22 1010.50 1010.80 1011.08 1011.33 1011.56 1011.77 1011.97 1012.18 1012.42 1012.68 1012.96 1013.25 1013.53 1013.78 1014.00 1014.18 1014.33 1014.48 1014.63 1014.79 1014.95 1015.10 1015.21 1015.28 1015.28
1005.90 1005.56 1005.16 1004.76 1004.39 1004.09 1003.89 1003.82 1003.89 1004.11 1004.47 1004.96 1005.53 1006.15 1006.78 1007.36 1007.88 1008.31 1008.67 1008.97 1009.23 1009.48 1009.74 1010.01 1010.28 1010.56 1010.81 1011.04 1011.23 1011.41 1011.58 1011.76 1011.96 1012.20 1012.48 1012.77 1013.07 1013.36 1013.63 1013.87 1014.07 1014.26 1014.43 1014.60 1014.76 1014.91 1015.02 1015.10 1015.11
1006.20 1005.86 1005.47 1005.08 1004.72 1004.41 1004.16 1004.00 1003.95 1004.02 1004.21 1004.53 1004.97 1005.48 1006.04 1006.62 1007.16 1007.66 1008.09 1008.47 1008.81 1009.13 1009.44 1009.75 1010.06 1010.35 1010.61 1010.84 1011.03 1011.18 1011.30 1011.43 1011.58 1011.78 1012.02 1012.31 1012.63 1012.96 1013.29 1013.59 1013.87 1014.11 1014.33 1014.51 1014.68 1014.82 1014.93 1015.00 1015.03
1006.58 1006.26 1005.91 1005.55 1005.20 1004.86 1004.56 1004.29 1004.09 1003.97 1003.97 1004.10 1004.37 1004.76 1005.25 1005.79 1006.35 1006.88 1007.38 1007.83 1008.25 1008.64 1009.02 1009.40 1009.78 1010.13 1010.45 1010.71 1010.90 1011.04 1011.13 1011.20 1011.28 1011.41 1011.60 1011.86 1012.18 1012.55 1012.94 1013.33 1013.68 1013.99 1014.26 1014.47 1014.65 1014.78 1014.88 1014.95 1014.98
1006.91 1006.65 1006.36 1006.05 1005.73 1005.39 1005.02 1004.64 1004.27 1003.96 1003.76 1003.69 1003.79 1004.05 1004.45 1004.94 1005.49 1006.05 1006.59 1007.09 1007.56 1008.02 1008.48 1008.94 1009.40 1009.84 1010.24 1010.57 1010.80 1010.95 1011.01 1011.02 1011.03 1011.07 1011.19 1011.41 1011.72 1012.12 1012.56 1013.03 1013.46 1013.85 1014.16 1014.41 1014.60 1014.73 1014.82 1014.88 1014.91
1007.12 1006.93 1006.74 1006.52 1006.26 1005.93 1005.51 1005.02 1004.50 1004.01 1003.60 1003.35 1003.28 1003.41 1003.72 1004.16 1004.68 1005.23 1005.78 1006.30 1006.80 1007.30 1007.81 1008.34 1008.89 1009.44 1009.94 1010.35 1010.65 1010.83 1010.88 1010.85 1010.79 1010.75 1010.80 1010.95 1011.24 1011.64 1012.13 1012.65 1013.16 1013.61 1013.99 1014.28 1014.48 1014.61 1014.70 1014.75 1014.79
1007.14 1007.06 1007.00 1006.91 1006.74 1006.44 1006.01 1005.44 1004.79 1004.12 1003.54 1003.12 1002.91 1002.92 1003.14 1003.52 1004.00 1004.52 1005.04 1005.54 1006.03 1006.52 1007.05 1007.63 1008.25 1008.88 1009.48 1010.00 1010.39 1010.62 1010.70 1010.65 1010.54 1010.43 1010.39 1010.48 1010.72 1011.11 1011.62 1012.18 1012.75 1013.27 1013.69 1014.02 1014.25 1014.39 1014.48 1014.54 1014.59
1006.96 1007.03 1007.14 1007.21 1007.17 1006.95 1006.52 1005.90 1005.14 1004.34 1003.61 1003.04 1002.71 1002.62 1002.76 1003.09 1003.51 1003.99 1004.45 1004.89 1005.32 1005.76 1006.26 1006.83 1007.48 1008.17 1008.86 1009.48 1009.97 1010.28 1010.40 1010.36 1010.22 1010.06 1009.96 1009.99 1010.18 1010.53 1011.03 1011.62 1012.22 1012.79 1013.26 1013.63 1013.89 1014.05 1014.16 1014.24 1014.32
1006.64 1006.90 1007.21 1007.47 1007.58 1007.45 1007.05 1006.40 1005.56 1004.65 1003.80 1003.12 1002.69 1002.52 1002.61 1002.88 1003.26 1003.67 1004.05 1004.40 1004.72 1005.07 1005.48 1005.99 1006.62 1007.34 1008.09 1008.79 1009.37 1009.77 1009.96 1009.97 1009.83 1009.65 1009.50 1009.47 1009.60 1009.91 1010.38 1010.97 1011.59 1012.18 1012.70 1013.11 1013.41 1013.61 1013.75 1013.87 1013.99
1006.26 1006.73 1007.26 1007.72 1007.99 1007.96 1007.60 1006.92 1006.02 1005.02 1004.07 1003.30 1002.80 1002.58 1002.63 1002.87 1003.20 1003.55 1003.85 1004.08 1004.28 1004.49 1004.77 1005.18 1005.75 1006.44 1007.20 1007.96 1008.62 1009.11 1009.38 1009.45 1009.35 1009.17 1009.00 1008.92 1009.00 1009.26 1009.69 1010.25 1010.87 1011.48 1012.03 1012.48 1012.83 1013.08 1013.27 1013.43 1013.61
1005.88 1006.57 1007.32 1007.98 1008.39 1008.45 1008.11 1007.41 1006.45 1005.38 1004.35 1003.52 1002.97 1002.72 1002.75 1002.97 1003.27 1003.57 1003.79 1003.92 1003.99 1004.05 1004.18 1004.46 1004.91 1005.54 1006.28 1007.05 1007.76 1008.33 1008.69 1008.83 1008.79 1008.63 1008.46 1008.36 1008.39 1008.59 1008.97 1009.50 1010.10 1010.71 1011.28 1011.77 1012.17 1012.48 1012.73 1012.95 1013.18
1005.57 1006.46 1007.41 1008.22 1008.74 1008.85 1008.53 1007.80 1006.78 1005.64 1004.55 1003.67 1003.09 1002.83 1002.86 1003.08 1003.38 1003.66 1003.82 1003.87 1003.82 1003.74 1003.73 1003.86 1004.19 1004.71 1005.39 1006.14 1006.87 1007.48 1007.91 1008.12 1008.14 1008.03 1007.87 1007.76 1007.76 1007.92 1008.25 1008.72 1009.29 1009.90 1010.48 1011.00 1011.45 1011.82 1012.13 1012.42 1012.70
1005.33 1006.39 1007.47 1008.39 1008.96 1009.10 1008.75 1007.99 1006.92 1005.73 1004.60 1003.70 1003.11 1002.86 1002.90 1003.15 1003.47 1003.74 1003.89 1003.88 1003.76 1003.58 1003.44 1003.44 1003.63 1004.03 1004.61 1005.30 1006.01 1006.62 1007.09 1007.35 1007.43 1007.37 1007.24 1007.14 1007.12 1007.24 1007.53 1007.95 1008.49 1009.07 1009.65 1010.19 1010.68 1011.10 1011.47 1011.82 1012.16
1005.14 1006.31 1007.46 1008.40 1008.99 1009.10 1008.72 1007.91 1006.81 1005.60 1004.46 1003.56 1002.99 1002.77 1002.85 1003.13 1003.49 1003.79 1003.95 1003.94 1003.78 1003.54 1003.32 1003.20 1003.26 1003.54 1004.00 1004.59 1005.22 1005.80 1006.26 1006.55 1006.67 1006.66 1006.57 1006.49 1006.47 1006.58 1006.83 1007.21 1007.70 1008.25 1008.82 1009.36 1009.87 1010.33 1010.75 1011.15 1011.53
1004.95 1006.15 1007.29 1008.20 1008.74 1008.80 1008.38 1007.55 1006.45 1005.25 1004.15 1003.30 1002.77 1002.60 1002.74 1003.07 1003.47 1003.82 1004.02 1004.04 1003.89 1003.63 1003.35 1003.15 1003.10 1003.25 1003.57 1004.02 1004.54 1005.04 1005.45 1005.73 1005.87 1005.89 1005.85 1005.81 1005.82 1005.93 1006.16 1006.51 1006.96 1007.48 1008.01 1008.54 1009.05 1009.52 1009.97 1010.41 1010.83
1004.71 1005.86 1006.92 1007.74 1008.19 1008.19 1007.74 1006.93 1005.88 1004.76 1003.75 1002.99 1002.55 1002.45 1002.65 1003.03 1003.48 1003.88 1004.13 1004.19 1004.08 1003.83 1003.53 1003.28 1003.13 1003.14 1003.31 1003.60 1003.96 1004.33 1004.65 1004.88 1005.02 1005.07 1005.08 1005.09 1005.15 1005.29 1005.54 1005.88 1006.30 1006.77 1007.27 1007.76 1008.25 1008.72 1009.17 1009.62 1010.08
1004.38 1005.41 1006.33 1007.01 1007.35 1007.29 1006.86 1006.11 1005.18 1004.22 1003.37 1002.75 1002.44 1002.43 1002.68 1003.11 1003.59 1004.02 1004.31 1004.42 1004.34 1004.12 1003.83 1003.53 1003.30 1003.18 1003.18 1003.28 1003.46 1003.66 1003.86 1004.01 1004.11 1004.18 1004.25 1004.33 1004.46 1004.67 1004.96 1005.31 1005.72 1006.16 1006.61 1007.06 1007.51 1007.94 1008.39 1008.84 1009.30
1003.95 1004.80 1005.54 1006.06 1006.29 1006.21 1005.82 1005.21 1004.47 1003.73 1003.10 1002.68 1002.52 1002.62 1002.93 1003.38 1003.86 1004.29 1004.59 1004.72 1004.67 1004.48 1004.19 1003.86 1003.55 1003.30 1003.12 1003.03 1002.99 1003.00 1003.04 1003.09 1003.15 1003.23 1003.35 1003.52 1003.76 1004.05 1004.41 1004.81 1005.23 1005.65 1006.06 1006.46 1006.86 1007.25 1007.67 1008.11 1008.58
Thickness
5828 5829 5828 5819 5800 5789 5790 5802 5811 5809 5811 5819 5822 5817 5805 5797 5788 5775 5799 5810 5810 5807 5803 5800 5799 5799 5800 5799 5798 5797 5796 5795 5795 5793 5792 5791 5790 5788 5786 5785 5784 5782 5781 5780 5779 5778 5776 5776 5774
5837 5837 5826 5813 5793 5784 5790 5806 5807 5811 5819 5825 5823 5819 5808 5800 5805 5801 5805 5809 5810 5808 5803 5800 5798 5797 5797 5797 5796 5796 5796 5795 5794 5792 5791 5790 5789 5787 5785 5784 5782 5781 5780 5779 5778 5777 5776 5775 5774
5840 5840 5819 5808 5801 5793 5794 5810 5813 5822 5829 5825 5818 5817 5807 5799 5805 5805 5808 5812 5811 5807 5803 5799 5797 5796 5796 5797 5796 5795 5795 5795 5794 5792 5791 5789 5788 5786 5784 5783 5781 5780 5779 5778 5777 5777 5775 5774 5773
5839 5832 5824 5812 5805 5813 5815 5820 5824 5822 5825 5827 5821 5807 5805 5811 5811 5811 5813 5813 5809 5807 5803 5798 5797 5796 5795 5795 5796 5795 5795 5794 5793 5791 5790 5788 5787 5785 5784 5782 5780 5779 5778 5777 5777 5775 5774 5773 5772
5840 5824 5813 5810 5814 5823 5829 5832 5831 5821 5819 5821 5817 5801 5797 5811 5817 5815 5813 5812 5808 5806 5803 5799 5796 5795 5795 5794 5794 5793 5792 5792 5791 5789 5788 5787 5786 5784 5783 5781 5780 5778 5777 5776 5776 5774 5773 5771 5770
5833 5828 5811 5806 5815 5825 5832 5837 5833 5824 5822 5822 5816 5802 5797 5812 5813 5813 5813 5810 5809 5807 5803 5799 5796 5795 5794 5793 5792 5792 5791 5790 5788 5788 5787 5786 5785 5783 5782 5781 5780 5778 5776 5775 5774 5772 5771 5770 5768
5833 5825 5819 5817 5817 5820 5830 5840 5833 5825 5820 5823 5824 5805 5799 5808 5813 5815 5813 5811 5810 5808 5803 5800 5797 5795 5794 5793 5792 5791 5790 5788 5788 5787 5786 5785 5784 5783 5782 5780 5779 5777 5775 5774 5773 5771 5770 5769 5768
5855 5833 5823 5822 5817 5819 5836 5841 5839 5831 5825 5836 5833 5809 5798 5808 5816 5816 5812 5809 5808 5807 5804 5801 5799 5797 5795 5793 5791 5790 5789 5788 5787 5786 5785 5784 5783 5782 5781 5779 5778 5776 5774 5773 5772 5771 5769 5769 5768
5865 5829 5817 5822 5822 5826 5840 5836 5839 5844 5833 5832 5832 5824 5818 5819 5818 5812 5807 5805 5804 5804 5804 5802 5800 5798 5797 5795 5792 5790 5789 5788 5787 5786 5785 5784 5783 5783 5781 5779 5777 5775 5774 5772 5771 5770 5769 5769 5768
5856 5826 5826 5840 5842 5837 5841 5838 5839 5834 5824 5820 5820 5821 5823 5820 5814 5808 5804 5801 5801 5801 5802 5802 5800 5799 5799 5797 5793 5791 5790 5788 5787 5786 5785 5784 5784 5783 5782 5779 5777 5775 5774 5773 5772 5770 5769 5769 5768
5858 5840 5844 5848 5853 5850 5843 5843 5846 5832 5818 5820 5815 5815 5818 5816 5812 5808 5806 5804 5802 5802 5802 5802 5800 5799 5799 5797 5795 5793 5791 5789 5788 5786 5785 5784 5783 5783 5781 5779 5777 5776 5774 5773 5772 5770 5770 5770 5770
5856 5854 5855 5854 5857 5853 5847 5846 5840 5833 5828 5835 5831 5825 5820 5815 5811 5809 5807 5805 5805 5803 5802 5802 5801 5799 5798 5797 5796 5794 5792 5790 5788 5786 5785 5784 5783 5782 5781 5780 5778 5776 5775 5774 5772 5771 5771 5770 5770
5854 5853 5859 5861 5860 5857 5852 5844 5839 5834 5840 5841 5835 5827 5821 5818 5815 5814 5813 5810 5807 5803 5802 5802 5801 5799 5798 5797 5796 5795 5793 5791 5789 5787 5785 5784 5784 5782 5781 5780 5778 5777 5775 5774 5772 5771 5770 5770 5770
5858 5858 5859 5861 5859 5858 5848 5844 5839 5834 5842 5836 5830 5824 5823 5820 5817 5814 5811 5809 5807 5805 5804 5803 5801 5800 5798 5796 5795 5795 5793 5791 5790 5788 5786 5785 5783 5782 5780 5779 5778 5776 5775 5774 5772 5771 5770 5769 5769
5867 5852 5851 5856 5858 5858 5849 5828 5831 5839 5841 5832 5828 5825 5823 5822 5819 5815 5813 5811 5810 5808 5806 5804 5803 5801 5798 5796 5796 5795 5794 5792 5790 5788 5787 5785 5783 5782 5780 5779 5778 5777 5775 5774 5772 5771 5770 5768 5768
5858 5846 5830 5849 5859 5859 5840 5809 5832 5844 5837 5829 5828 5826 5823 5822 5822 5820 5818 5815 5813 5810 5807 5806 5806 5801 5799 5797 5796 5795 5794 5793 5791 5789 5788 5786 5784 5783 5781 5779 5777 5777 5775 5774 5772 5770 5767 5766 5765
5840 5829 5829 5842 5860 5858 5843 5819 5835 5846 5838 5830 5829 5827 5825 5822 5822 5822 5821 5819 5816 5812 5808 5806 5805 5802 5800 5798 5797 5796 5794 5793 5792 5790 5788 5786 5784 5782 5781 5779 5777 5777 5775 5773 5772 5769 5767 5764 5763
5824 5830 5833 5836 5853 5853 5841 5831 5838 5846 5842 5833 5832 5830 5827 5824 5823 5825 5825 5823 5819 5815 5811 5808 5805 5802 5800 5798 5796 5795 5793 5793 5792 5790 5787 5785 5784 5782 5780 5779 5777 5776 5773 5771 5769 5767 5766 5764 5763
5841 5837 5833 5841 5858 5849 5839 5834 5838 5844 5842 5837 5834 5832 5828 5827 5830 5829 5826 5825 5820 5815 5811 5808 5805 5803 5801 5797 5794 5791 5790 5791 5790 5790 5787 5786 5784 5782 5780 5779 5777 5775 5772 5769 5768 5765 5763 5762 5762
5845 5834 5834 5844 5858 5848 5835 5832 5842 5846 5844 5843 5839 5835 5832 5829 5828 5827 5826 5823 5820 5815 5812 5809 5806 5804 5802 5799 5797 5795 5793 5792 5791 5790 5787 5786 5784 5782 5782 5778 5777 5775 5772 5769 5767 5765 5761 5761 5761
5843 5838 5837 5838 5849 5850 5835 5822 5832 5844 5850 5848 5846 5842 5840 5833 5828 5826 5824 5822 5821 5816 5813 5812 5808 5806 5803 5801 5798 5796 5793 5791 5789 5787 5786 5786 5784 5782 5779 5778 5776 5775 5772 5768 5767 5765 5761 5757 5759
5834 5852 5850 5845 5834 5824 5829 5801 5822 5835 5838 5841 5842 5842 5840 5838 5833 5829 5825 5823 5822 5820 5818 5814 5810 5807 5805 5802 5798 5794 5790 5786 5786 5786 5785 5785 5784 5782 5780 5778 5776 5774 5772 5769 5767 5765 5763 5759 5755
5844 5858 5852 5846 5833 5822 5827 5811 5817 5835 5828 5835 5840 5842 5842 5841 5837 5832 5829 5826 5825 5824 5821 5816 5811 5808 5806 5803 5800 5796 5792 5790 5789 5787 5785 5784 5783 5781 5779 5777 5775 5773 5771 5769 5767 5765 5763 5760 5756
5856 5850 5846 5843 5829 5804 5821 5814 5809 5828 5832 5836 5842 5843 5843 5842 5840 5836 5833 5829 5826 5825 5823 5818 5811 5807 5806 5803 5800 5796 5792 5790 5787 5785 5783 5783 5782 5780 5779 5777 5775 5773 5771 5769 5766 5764 5762 5760 5758
5847 5826 5804 5797 5795 5800 5828 5819 5819 5838 5847 5845 5844 5844 5845 5843 5840 5836 5831 5827 5824 5823 5821 5817 5811 5806 5805 5802 5799 5796 5793 5791 5787 5785 5783 5782 5780 5779 5778 5777 5774 5771 5769 5768 5766 5763 5761 5760 5758
5837 5828 5797 5780 5786 5801 5819 5810 5827 5851 5854 5853 5849 5848 5847 5843 5841 5837 5833 5828 5825 5822 5820 5816 5810 5806 5804 5801 5798 5796 5794 5791 5788 5786 5784 5782 5781 5780 5779 5777 5774 5771 5769 5767 5764 5762 5760 5759 5758
5830 5827 5835 5814 5809 5800 5806 5816 5829 5846 5845 5845 5844 5844 5843 5843 5841 5838 5835 5830 5826 5822 5819 5816 5810 5806 5803 5801 5797 5794 5792 5789 5786 5784 5783 5782 5781 5780 5778 5775 5772 5770 5768 5765 5763 5760 5758 5757 5756
5845 5838 5825 5807 5787 5779 5792 5800 5806 5819 5827 5835 5837 5837 5839 5841 5840 5838 5835 5831 5827 5823 5819 5816 5811 5806 5804 5800 5797 5793 5790 5788 5785 5782 5780 5779 5778 5777 5775 5773 5770 5768 5766 5763 5761 5758 5757 5755 5753
5830 5827 5821 5814 5810 5785 5772 5788 5824 5823 5827 5833 5837 5838 5837 5839 5839 5837 5835 5832 5829 5825 5819 5814 5809 5804 5801 5799 5797 5793 5789 5787 5783 5779 5778 5776 5775 5773 5771 5769 5767 5764 5762 5760 5758 5756 5754 5752 5750
5836 5825 5817 5795 5791 5796 5785 5792 5836 5834 5834 5835 5835 5837 5839 5839 5838 5836 5834 5830 5827 5822 5818 5812 5808 5803 5800 5798 5795 5792 5788 5784 5780 5777 5776 5774 5772 5770 5768 5766 5764 5761 5759 5757 5755 5752 5751 5749 5747